| time (UTC) | temp F | wind direction | speed MPH | gust MPH | rain 1hr in | rain 24hr in | rain mn in | humidity % | barometer mb |
| 20260510230834 | 76 | 149 | 0.0 | 0.0 | 0.00 | 0.01 | 0.01 | 77 | 1016.5 |
| 20260510230334 | 77 | 149 | 0.0 | 0.0 | 0.00 | 0.01 | 0.01 | 76 | 1016.6 |
| 20260510225333 | 78 | 149 | 0.0 | 1.0 | 0.00 | 0.01 | 0.01 | 73 | 1016.8 |
| 20260510224833 | 78 | 149 | 0.0 | 3.0 | 0.00 | 0.01 | 0.01 | 64 | 1016.8 |
| 20260510223833 | 79 | 149 | 2.0 | 5.0 | 0.00 | 0.01 | 0.01 | 65 | 1016.9 |
| 20260510223333 | 78 | 151 | 1.0 | 5.0 | 0.00 | 0.01 | 0.01 | 65 | 1016.8 |
| 20260510222833 | 79 | 152 | 2.0 | 5.0 | 0.00 | 0.01 | 0.01 | 66 | 1016.8 |
| 20260510222403 | 78 | 158 | 5.0 | 7.0 | 0.00 | 0.01 | 0.01 | 65 | 1016.8 |
| 20260510221402 | 79 | 120 | 4.0 | 6.0 | 0.00 | 0.01 | 0.01 | 64 | 1016.8 |
| 20260510220903 | 79 | 121 | 3.0 | 5.0 | 0.00 | 0.01 | 0.01 | 63 | 1016.8 |
| 20260510220402 | 79 | 117 | 3.0 | 5.0 | 0.00 | 0.01 | 0.01 | 64 | 1016.8 |
| 20260510215902 | 79 | 103 | 2.0 | 3.0 | 0.00 | 0.01 | 0.01 | 63 | 1016.8 |
| 20260510215402 | 79 | 100 | 3.0 | 6.0 | 0.00 | 0.01 | 0.01 | 64 | 1016.9 |
| 20260510214402 | 79 | 78 | 2.0 | 6.0 | 0.00 | 0.01 | 0.01 | 64 | 1016.9 |
| 20260510213902 | 79 | 116 | 2.0 | 4.0 | 0.00 | 0.01 | 0.01 | 64 | 1016.8 |
| 20260510213401 | 79 | 13 | 0.0 | 4.0 | 0.00 | 0.01 | 0.01 | 63 | 1016.9 |
| 20260510212902 | 79 | 76 | 1.0 | 4.0 | 0.00 | 0.01 | 0.01 | 62 | 1016.8 |
| 20260510212401 | 79 | 128 | 1.0 | 4.0 | 0.00 | 0.01 | 0.01 | 65 | 1016.8 |
| 20260510211401 | 79 | 115 | 4.0 | 4.0 | 0.00 | 0.01 | 0.01 | 63 | 1016.9 |
| 20260510210401 | 79 | 105 | 2.0 | 7.0 | 0.00 | 0.01 | 0.01 | 62 | 1017.0 |
| 20260510205901 | 79 | 40 | 2.0 | 6.0 | 0.00 | 0.01 | 0.01 | 62 | 1017.0 |
| 20260510205401 | 79 | 75 | 3.0 | 6.0 | 0.00 | 0.01 | 0.01 | 64 | 1017.0 |
| 20260510204901 | 79 | 93 | 0.0 | 4.0 | 0.00 | 0.01 | 0.01 | 67 | 1016.9 |
| 20260510204400 | 78 | 94 | 0.0 | 5.0 | 0.00 | 0.01 | 0.01 | 67 | 1016.8 |
| 20260510203900 | 78 | 109 | 3.0 | 5.0 | 0.00 | 0.01 | 0.01 | 66 | 1016.9 |
| 20260510203400 | 78 | 53 | 4.0 | 7.0 | 0.00 | 0.01 | 0.01 | 65 | 1016.9 |
| 20260510202900 | 78 | 100 | 1.0 | 7.0 | 0.00 | 0.01 | 0.01 | 67 | 1017.0 |
| 20260510202400 | 78 | 116 | 4.0 | 5.0 | 0.00 | 0.01 | 0.01 | 68 | 1017.0 |
| 20260510201900 | 78 | 143 | 3.0 | 7.0 | 0.00 | 0.01 | 0.01 | 69 | 1017.0 |
| 20260510201400 | 78 | 24 | 2.0 | 7.0 | 0.00 | 0.01 | 0.01 | 66 | 1017.1 |
| 20260510200859 | 78 | 46 | 6.0 | 6.0 | 0.00 | 0.01 | 0.01 | 66 | 1017.1 |
| 20260510200359 | 77 | 113 | 3.0 | 4.0 | 0.00 | 0.01 | 0.01 | 68 | 1017.1 |
| 20260510194859 | 77 | 143 | 3.0 | 7.0 | 0.00 | 0.01 | 0.01 | 70 | 1017.3 |
| 20260510194359 | 76 | 5 | 2.0 | 8.0 | 0.00 | 0.01 | 0.01 | 72 | 1017.2 |
| 20260510193859 | 76 | 19 | 4.0 | 8.0 | 0.00 | 0.01 | 0.01 | 72 | 1017.2 |
| 20260510193359 | 76 | 121 | 4.0 | 7.0 | 0.00 | 0.01 | 0.01 | 72 | 1017.2 |
| 20260510192859 | 76 | 142 | 4.0 | 7.0 | 0.00 | 0.01 | 0.01 | 74 | 1017.2 |
| 20260510192358 | 76 | 98 | 2.0 | 8.0 | 0.00 | 0.01 | 0.01 | 74 | 1017.3 |
| 20260510191858 | 76 | 83 | 4.0 | 8.0 | 0.00 | 0.01 | 0.01 | 74 | 1017.3 |
| 20260510191358 | 76 | 40 | 2.0 | 8.0 | 0.00 | 0.01 | 0.01 | 75 | 1017.3 |
| 20260510190858 | 76 | 84 | 2.0 | 8.0 | 0.00 | 0.01 | 0.01 | 75 | 1017.6 |
| 20260510185858 | 75 | 146 | 3.0 | 8.0 | 0.00 | 0.01 | 0.01 | 79 | 1017.5 |
| 20260510185358 | 75 | 157 | 2.0 | 8.0 | 0.00 | 0.01 | 0.01 | 77 | 1017.6 |
| 20260510184858 | 74 | 163 | 4.0 | 8.0 | 0.00 | 0.01 | 0.01 | 78 | 1017.6 |
| 20260510184358 | 74 | 119 | 0.0 | 7.0 | 0.00 | 0.01 | 0.01 | 78 | 1017.7 |
| 20260510183857 | 74 | 119 | 1.0 | 7.0 | 0.00 | 0.01 | 0.01 | 76 | 1017.8 |
| 20260510182857 | 74 | 115 | 3.0 | 7.0 | 0.00 | 0.01 | 0.01 | 78 | 1017.8 |
| 20260510182357 | 74 | 200 | 5.0 | 7.0 | 0.00 | 0.01 | 0.01 | 78 | 1017.8 |
| 20260510181857 | 73 | 128 | 1.0 | 7.0 | 0.00 | 0.01 | 0.01 | 80 | 1017.8 |
| 20260510181357 | 73 | 110 | 2.0 | 6.0 | 0.00 | 0.01 | 0.01 | 78 | 1017.8 |
| 20260510180857 | 73 | 171 | 2.0 | 9.0 | 0.00 | 0.01 | 0.01 | 79 | 1017.8 |
| 20260510175857 | 72 | 252 | 1.0 | 4.0 | 0.00 | 0.01 | 0.01 | 81 | 1018.0 |
| 20260510175357 | 72 | 34 | 2.0 | 4.0 | 0.00 | 0.01 | 0.01 | 81 | 1018.1 |
| 20260510174857 | 72 | 30 | 2.0 | 5.0 | 0.00 | 0.01 | 0.01 | 81 | 1018.2 |
| 20260510174356 | 72 | 30 | 1.0 | 5.0 | 0.00 | 0.01 | 0.01 | 79 | 1018.3 |
| 20260510173856 | 72 | 129 | 0.0 | 5.0 | 0.00 | 0.01 | 0.01 | 80 | 1018.4 |
| 20260510173356 | 71 | 135 | 4.0 | 5.0 | 0.00 | 0.01 | 0.01 | 82 | 1018.5 |
| 20260510172856 | 71 | 88 | 4.0 | 8.0 | 0.00 | 0.01 | 0.01 | 83 | 1018.5 |
| 20260510172356 | 71 | 202 | 3.0 | 8.0 | 0.00 | 0.01 | 0.01 | 83 | 1018.5 |
| 20260510171856 | 71 | 167 | 8.0 | 8.0 | 0.00 | 0.01 | 0.01 | 82 | 1018.6 |
| 20260510171356 | 71 | 126 | 4.0 | 7.0 | 0.00 | 0.01 | 0.01 | 82 | 1018.6 |
| 20260510170856 | 70 | 156 | 5.0 | 7.0 | 0.00 | 0.01 | 0.01 | 83 | 1018.7 |
| 20260510170355 | 70 | 152 | 3.0 | 6.0 | 0.00 | 0.01 | 0.01 | 84 | 1018.8 |
| 20260510164855 | 69 | 26 | 4.0 | 8.0 | 0.00 | 0.01 | 0.01 | 85 | 1018.8 |
| 20260510164355 | 69 | 51 | 4.0 | 8.0 | 0.00 | 0.01 | 0.01 | 87 | 1018.7 |
| 20260510163855 | 69 | 66 | 2.0 | 6.0 | 0.00 | 0.01 | 0.01 | 89 | 1018.6 |
| 20260510163355 | 68 | 94 | 4.0 | 6.0 | 0.00 | 0.01 | 0.01 | 89 | 1018.7 |
| 20260510162855 | 68 | 107 | 6.0 | 6.0 | 0.00 | 0.01 | 0.01 | 90 | 1018.6 |
| 20260510162354 | 68 | 103 | 3.0 | 6.0 | 0.00 | 0.01 | 0.01 | 89 | 1018.6 |
| 20260510161354 | 68 | 94 | 3.0 | 6.0 | 0.00 | 0.01 | 0.01 | 90 | 1018.6 |
| 20260510160854 | 67 | 102 | 6.0 | 6.0 | 0.00 | 0.01 | 0.01 | 90 | 1018.6 |
| 20260510160354 | 67 | 107 | 3.0 | 7.0 | 0.00 | 0.01 | 0.01 | 90 | 1018.7 |
| 20260510155354 | 67 | 113 | 4.0 | 8.0 | 0.00 | 0.01 | 0.01 | 90 | 1018.6 |
| 20260510154853 | 67 | 107 | 1.0 | 4.0 | 0.00 | 0.01 | 0.01 | 90 | 1018.8 |
| 20260510154354 | 67 | 107 | 0.0 | 4.0 | 0.00 | 0.01 | 0.01 | 90 | 1018.8 |
| 20260510153853 | 67 | 107 | 1.0 | 6.0 | 0.00 | 0.01 | 0.01 | 90 | 1018.7 |
| 20260510153353 | 67 | 111 | 2.0 | 6.0 | 0.00 | 0.01 | 0.01 | 91 | 1018.7 |
| 20260510152853 | 67 | 122 | 4.0 | 6.0 | 0.00 | 0.01 | 0.01 | 91 | 1018.6 |
| 20260510152353 | 67 | 107 | 3.0 | 6.0 | 0.00 | 0.01 | 0.01 | 92 | 1018.6 |
| 20260510151853 | 66 | 102 | 2.0 | 6.0 | 0.00 | 0.01 | 0.01 | 92 | 1018.5 |
| 20260510151353 | 66 | 94 | 1.0 | 6.0 | 0.00 | 0.01 | 0.01 | 93 | 1018.6 |
| 20260510150853 | 66 | 112 | 2.0 | 6.0 | 0.00 | 0.01 | 0.01 | 93 | 1018.6 |
| 20260510145352 | 66 | 49 | 4.0 | 5.0 | 0.00 | 0.01 | 0.01 | 96 | 1018.5 |
| 20260510144852 | 65 | 69 | 2.0 | 5.0 | 0.00 | 0.01 | 0.01 | 97 | 1018.4 |
| 20260510143852 | 65 | 62 | 2.0 | 5.0 | 0.00 | 0.01 | 0.01 | 97 | 1018.5 |
| 20260510143352 | 65 | 21 | 3.0 | 4.0 | 0.00 | 0.01 | 0.01 | 98 | 1018.6 |
| 20260510142852 | 65 | 346 | 0.0 | 0.0 | 0.00 | 0.01 | 0.01 | 98 | 1018.6 |
| 20260510142352 | 65 | 346 | 0.0 | 0.0 | 0.01 | 0.01 | 0.01 | 98 | 1018.7 |
| 20260510141851 | 65 | 346 | 0.0 | 2.0 | 0.01 | 0.01 | 0.01 | 98 | 1018.7 |
| 20260510140851 | 65 | 346 | 1.0 | 4.0 | 0.01 | 0.01 | 0.01 | 98 | 1018.6 |
| 20260510140351 | 64 | 346 | 2.0 | 4.0 | 0.01 | 0.01 | 0.01 | 98 | 1018.5 |
| 20260510135351 | 64 | 323 | 4.0 | 4.0 | 0.01 | 0.01 | 0.01 | 98 | 1018.5 |
| 20260510133851 | 64 | 5 | 3.0 | 3.0 | 0.01 | 0.01 | 0.01 | 98 | 1018.2 |
| 20260510133351 | 64 | 5 | 2.0 | 3.0 | 0.01 | 0.01 | 0.01 | 98 | 1018.2 |
| 20260510132850 | 64 | 90 | 0.0 | 3.0 | 0.01 | 0.01 | 0.01 | 98 | 1018.2 |
| 20260510132351 | 64 | 92 | 1.0 | 3.0 | 0.00 | 0.00 | 0.00 | 98 | 1018.1 |
| 20260510131851 | 64 | 100 | 1.0 | 2.0 | 0.00 | 0.00 | 0.00 | 98 | 1018.1 |
| 20260510131350 | 64 | 100 | 0.0 | 0.0 | 0.00 | 0.00 | 0.00 | 98 | 1018.2 |
| 20260510130850 | 64 | 100 | 0.0 | 0.0 | 0.00 | 0.00 | 0.00 | 98 | 1018.2 |
| 20260510130350 | 64 | 100 | 0.0 | 0.0 | 0.00 | 0.00 | 0.00 | 98 | 1018.2 |
| 20260510125850 | 64 | 100 | 0.0 | 0.0 | 0.00 | 0.00 | 0.00 | 98 | 1018.1 |
| 20260510125350 | 64 | 100 | 0.0 | 0.0 | 0.00 | 0.00 | 0.00 | 98 | 1018.0 |
| 20260510124850 | 64 | 100 | 0.0 | 0.0 | 0.00 | 0.00 | 0.00 | 98 | 1018.0 |
| 20260510124350 | 64 | 100 | 0.0 | 0.0 | 0.00 | 0.00 | 0.00 | 98 | 1018.0 |
| 20260510123850 | 64 | 100 | 0.0 | 0.0 | 0.00 | 0.00 | 0.00 | 98 | 1017.9 |
| 20260510123349 | 64 | 100 | 0.0 | 0.0 | 0.00 | 0.00 | 0.00 | 98 | 1017.7 |
| 20260510122349 | 64 | 100 | 0.0 | 0.0 | 0.00 | 0.00 | 0.00 | 98 | 1017.8 |
| 20260510121849 | 64 | 100 | 0.0 | 0.0 | 0.00 | 0.00 | 0.00 | 98 | 1017.7 |
| 20260510121349 | 64 | 100 | 0.0 | 0.0 | 0.00 | 0.00 | 0.00 | 98 | 1017.7 |
| 20260510120849 | 63 | 100 | 0.0 | 0.0 | 0.00 | 0.00 | 0.00 | 98 | 1017.4 |
| 20260510120349 | 63 | 103 | 0.0 | 0.0 | 0.00 | 0.00 | 0.00 | 98 | 1017.3 |
| 20260510115849 | 63 | 103 | 0.0 | 0.0 | 0.00 | 0.00 | 0.00 | 98 | 1017.3 |
| 20260510115349 | 63 | 103 | 0.0 | 0.0 | 0.00 | 0.00 | 0.00 | 98 | 1017.2 |
| 20260510114848 | 63 | 55 | 0.0 | 0.0 | 0.00 | 0.00 | 0.00 | 98 | 1017.1 |
| 20260510114349 | 63 | 55 | 0.0 | 0.0 | 0.00 | 0.00 | 0.00 | 98 | 1016.9 |
| 20260510113848 | 63 | 55 | 0.0 | 2.0 | 0.00 | 0.00 | 0.00 | 98 | 1016.8 |
| 20260510113348 | 63 | 55 | 0.0 | 3.0 | 0.00 | 0.00 | 0.00 | 98 | 1016.8 |
| 20260510112848 | 63 | 54 | 0.0 | 3.0 | 0.00 | 0.00 | 0.00 | 98 | 1016.7 |
| 20260510112348 | 63 | 41 | 0.0 | 3.0 | 0.00 | 0.00 | 0.00 | 98 | 1016.7 |
| 20260510111848 | 63 | 40 | 0.0 | 2.0 | 0.00 | 0.00 | 0.00 | 98 | 1016.5 |
| 20260510111348 | 63 | 40 | 0.0 | 3.0 | 0.00 | 0.00 | 0.00 | 98 | 1016.4 |
| 20260510110348 | 63 | 44 | 2.0 | 4.0 | 0.00 | 0.00 | 0.00 | 98 | 1016.2 |
| 20260510105848 | 63 | 9 | 2.0 | 4.0 | 0.00 | 0.00 | 0.00 | 98 | 1016.3 |
| 20260510104348 | 63 | 192 | 0.0 | 0.0 | 0.00 | 0.00 | 0.00 | 98 | 1016.1 |
| 20260510103848 | 63 | 191 | 0.0 | 0.0 | 0.00 | 0.00 | 0.00 | 98 | 1015.9 |
| 20260510103347 | 63 | 188 | 0.0 | 2.0 | 0.00 | 0.00 | 0.00 | 98 | 1015.8 |
| 20260510102847 | 63 | 188 | 0.0 | 3.0 | 0.00 | 0.00 | 0.00 | 98 | 1015.8 |
| 20260510102347 | 62 | 188 | 1.0 | 4.0 | 0.00 | 0.00 | 0.00 | 98 | 1015.8 |
| 20260510101847 | 62 | 188 | 1.0 | 4.0 | 0.00 | 0.00 | 0.00 | 98 | 1015.7 |
| 20260510101347 | 62 | 181 | 0.0 | 0.0 | 0.00 | 0.00 | 0.00 | 98 | 1015.6 |
| 20260510100847 | 62 | 181 | 0.0 | 0.0 | 0.00 | 0.00 | 0.00 | 98 | 1015.6 |
| 20260510100347 | 62 | 181 | 0.0 | 0.0 | 0.00 | 0.00 | 0.00 | 98 | 1015.5 |
| 20260510095847 | 62 | 181 | 0.0 | 0.0 | 0.00 | 0.00 | 0.00 | 98 | 1015.5 |
| 20260510095347 | 62 | 181 | 0.0 | 0.0 | 0.00 | 0.00 | 0.00 | 98 | 1015.4 |
| 20260510094347 | 61 | 181 | 0.0 | 0.0 | 0.00 | 0.00 | 0.00 | 98 | 1015.3 |
| 20260510093846 | 61 | 181 | 0.0 | 0.0 | 0.00 | 0.00 | 0.00 | 98 | 1015.2 |
| 20260510093347 | 61 | 181 | 0.0 | 0.0 | 0.00 | 0.00 | 0.00 | 98 | 1015.2 |
| 20260510092846 | 60 | 181 | 0.0 | 0.0 | 0.00 | 0.00 | 0.00 | 97 | 1015.1 |
| 20260510092346 | 60 | 181 | 0.0 | 0.0 | 0.00 | 0.00 | 0.00 | 98 | 1015.1 |
| 20260510091846 | 60 | 181 | 0.0 | 0.0 | 0.00 | 0.00 | 0.00 | 98 | 1015.0 |
| 20260510091346 | 60 | 181 | 0.0 | 0.0 | 0.00 | 0.00 | 0.00 | 98 | 1014.9 |
| 20260510090846 | 60 | 181 | 0.0 | 0.0 | 0.00 | 0.00 | 0.00 | 97 | 1014.9 |
| 20260510090346 | 59 | 181 | 0.0 | 0.0 | 0.00 | 0.00 | 0.00 | 97 | 1014.8 |
| 20260510085846 | 59 | 181 | 0.0 | 0.0 | 0.00 | 0.00 | 0.00 | 97 | 1014.8 |
| 20260510085346 | 59 | 181 | 0.0 | 0.0 | 0.00 | 0.00 | 0.00 | 97 | 1014.7 |
| 20260510084845 | 59 | 181 | 0.0 | 0.0 | 0.00 | 0.00 | 0.00 | 97 | 1014.6 |
| 20260510084345 | 59 | 181 | 0.0 | 0.0 | 0.00 | 0.00 | 0.00 | 97 | 1014.6 |
| 20260510083845 | 59 | 181 | 0.0 | 0.0 | 0.00 | 0.00 | 0.00 | 97 | 1014.5 |
| 20260510083345 | 59 | 181 | 0.0 | 0.0 | 0.00 | 0.00 | 0.00 | 97 | 1014.5 |
| 20260510082845 | 59 | 181 | 0.0 | 0.0 | 0.00 | 0.00 | 0.00 | 96 | 1014.4 |
| 20260510082345 | 59 | 181 | 0.0 | 0.0 | 0.00 | 0.00 | 0.00 | 97 | 1014.4 |
| 20260510081845 | 60 | 181 | 0.0 | 0.0 | 0.00 | 0.00 | 0.00 | 97 | 1014.5 |
| 20260510081345 | 60 | 181 | 0.0 | 0.0 | 0.00 | 0.00 | 0.00 | 97 | 1014.5 |
| 20260510080844 | 60 | 181 | 0.0 | 0.0 | 0.00 | 0.00 | 0.00 | 97 | 1014.4 |
| 20260510080345 | 60 | 181 | 0.0 | 0.0 | 0.00 | 0.00 | 0.00 | 97 | 1014.4 |
| 20260510075844 | 60 | 181 | 0.0 | 0.0 | 0.00 | 0.00 | 0.00 | 97 | 1014.4 |
| 20260510075344 | 59 | 181 | 0.0 | 0.0 | 0.00 | 0.00 | 0.00 | 97 | 1014.4 |
| 20260510074844 | 59 | 181 | 0.0 | 0.0 | 0.00 | 0.00 | 0.00 | 96 | 1014.5 |
| 20260510074344 | 59 | 181 | 0.0 | 0.0 | 0.00 | 0.00 | 0.00 | 96 | 1014.5 |
| 20260510073844 | 59 | 181 | 0.0 | 0.0 | 0.00 | 0.00 | 0.00 | 96 | 1014.5 |
| 20260510073344 | 59 | 181 | 0.0 | 0.0 | 0.00 | 0.00 | 0.00 | 96 | 1014.4 |
| 20260510072844 | 59 | 181 | 0.0 | 0.0 | 0.00 | 0.00 | 0.00 | 96 | 1014.4 |
| 20260510072344 | 59 | 181 | 0.0 | 0.0 | 0.00 | 0.00 | 0.00 | 96 | 1014.4 |
| 20260510071844 | 59 | 181 | 0.0 | 0.0 | 0.00 | 0.00 | 0.00 | 96 | 1014.3 |
| 20260510071344 | 59 | 181 | 0.0 | 0.0 | 0.00 | 0.00 | 0.00 | 96 | 1014.4 |
| 20260510070844 | 60 | 181 | 0.0 | 0.0 | 0.00 | 0.00 | 0.00 | 96 | 1014.5 |
| 20260510070344 | 60 | 181 | 0.0 | 0.0 | 0.00 | 0.00 | 0.00 | 96 | 1014.6 |
| 20260510065844 | 60 | 181 | 0.0 | 0.0 | 0.00 | 0.00 | 0.00 | 96 | 1014.6 |
| 20260510064343 | 60 | 181 | 0.0 | 0.0 | 0.00 | 0.00 | 0.00 | 96 | 1014.7 |
| 20260510063843 | 60 | 181 | 0.0 | 0.0 | 0.00 | 0.00 | 0.00 | 96 | 1014.8 |
| 20260510062343 | 60 | 181 | 0.0 | 0.0 | 0.00 | 0.00 | 0.00 | 96 | 1014.8 |
| 20260510061843 | 60 | 181 | 0.0 | 0.0 | 0.00 | 0.00 | 0.00 | 95 | 1014.8 |
| 20260510060842 | 60 | 181 | 0.0 | 0.0 | 0.00 | 0.00 | 0.00 | 95 | 1014.8 |
| 20260510060343 | 60 | 181 | 0.0 | 0.0 | 0.00 | 0.00 | 0.00 | 96 | 1014.7 |
| 20260510055843 | 60 | 181 | 0.0 | 0.0 | 0.00 | 0.00 | 0.00 | 95 | 1014.8 |
| 20260510055342 | 60 | 181 | 0.0 | 0.0 | 0.00 | 0.00 | 0.00 | 95 | 1014.7 |
| 20260510054842 | 60 | 181 | 0.0 | 0.0 | 0.00 | 0.00 | 0.00 | 95 | 1014.6 |
| 20260510054342 | 60 | 181 | 0.0 | 0.0 | 0.00 | 0.00 | 0.00 | 95 | 1014.8 |
| 20260510053842 | 61 | 181 | 0.0 | 0.0 | 0.00 | 0.00 | 0.00 | 95 | 1015.0 |
| 20260510053342 | 61 | 181 | 0.0 | 0.0 | 0.00 | 0.00 | 0.00 | 95 | 1015.0 |
| 20260510052842 | 61 | 181 | 0.0 | 0.0 | 0.00 | 0.00 | 0.00 | 95 | 1014.9 |
| 20260510052342 | 61 | 181 | 0.0 | 0.0 | 0.00 | 0.00 | 0.00 | 95 | 1015.0 |
| 20260510051842 | 61 | 181 | 0.0 | 0.0 | 0.00 | 0.00 | 0.00 | 95 | 1015.1 |
| 20260510051342 | 61 | 181 | 0.0 | 0.0 | 0.00 | 0.00 | 0.00 | 95 | 1015.0 |
| 20260510050342 | 62 | 181 | 0.0 | 0.0 | 0.00 | 0.00 | 0.00 | 95 | 1015.0 |
| 20260510045842 | 62 | 181 | 0.0 | 0.0 | 0.00 | 0.00 | 0.00 | 95 | 1015.1 |
| 20260510045341 | 62 | 181 | 0.0 | 0.0 | 0.00 | 0.00 | 0.00 | 95 | 1015.1 |
| 20260510044841 | 62 | 181 | 0.0 | 0.0 | 0.00 | 0.00 | 0.00 | 95 | 1015.1 |
| 20260510044341 | 63 | 181 | 0.0 | 0.0 | 0.00 | 0.00 | 0.00 | 95 | 1015.0 |
| 20260510043841 | 63 | 181 | 0.0 | 0.0 | 0.00 | 0.00 | 0.00 | 95 | 1015.1 |
| 20260510043341 | 63 | 181 | 0.0 | 0.0 | 0.00 | 0.00 | 0.00 | 95 | 1015.1 |
| 20260510042841 | 63 | 181 | 0.0 | 0.0 | 0.00 | 0.00 | 0.00 | 95 | 1015.1 |
| 20260510042341 | 64 | 181 | 0.0 | 0.0 | 0.00 | 0.00 | 0.00 | 96 | 1015.0 |
| 20260510040840 | 64 | 181 | 0.0 | 0.0 | 0.00 | 0.00 | 0.00 | 96 | 1015.1 |
| 20260510040341 | 64 | 181 | 0.0 | 0.0 | 0.00 | 0.00 | 0.00 | 96 | 1015.1 |
| 20260510035840 | 63 | 181 | 0.0 | 0.0 | 0.00 | 0.00 | 0.00 | 95 | 1015.1 |
| 20260510035340 | 63 | 181 | 0.0 | 0.0 | 0.00 | 0.00 | 0.00 | 95 | 1015.1 |
| 20260510034840 | 63 | 181 | 0.0 | 0.0 | 0.00 | 0.00 | 0.00 | 95 | 1015.0 |
| 20260510034340 | 63 | 181 | 0.0 | 0.0 | 0.00 | 0.00 | 0.00 | 94 | 1015.2 |
| 20260510033840 | 63 | 181 | 0.0 | 0.0 | 0.00 | 0.00 | 0.00 | 94 | 1015.1 |
| 20260510033340 | 64 | 181 | 0.0 | 0.0 | 0.00 | 0.00 | 0.00 | 95 | 1015.2 |
| 20260510032840 | 64 | 181 | 0.0 | 0.0 | 0.00 | 0.00 | 0.00 | 95 | 1015.2 |
| 20260510032340 | 64 | 181 | 0.0 | 0.0 | 0.00 | 0.00 | 0.00 | 94 | 1015.2 |
| 20260510031839 | 64 | 181 | 0.0 | 0.0 | 0.00 | 0.00 | 0.00 | 94 | 1015.1 |
| 20260510031339 | 64 | 181 | 0.0 | 0.0 | 0.00 | 0.00 | 0.00 | 94 | 1015.1 |
| 20260510030840 | 64 | 181 | 0.0 | 0.0 | 0.00 | 0.00 | 0.00 | 94 | 1015.2 |
| 20260510030339 | 64 | 181 | 0.0 | 0.0 | 0.00 | 0.00 | 0.00 | 94 | 1015.1 |
| 20260510025839 | 64 | 181 | 0.0 | 0.0 | 0.00 | 0.00 | 0.00 | 94 | 1015.2 |
| 20260510025339 | 64 | 181 | 0.0 | 0.0 | 0.00 | 0.00 | 0.00 | 94 | 1015.1 |
| 20260510024339 | 64 | 181 | 0.0 | 0.0 | 0.00 | 0.00 | 0.00 | 94 | 1014.9 |
| 20260510023838 | 64 | 181 | 0.0 | 0.0 | 0.00 | 0.00 | 0.00 | 93 | 1014.8 |
| 20260510023339 | 64 | 181 | 0.0 | 0.0 | 0.00 | 0.00 | 0.00 | 93 | 1014.6 |
| 20260510022838 | 64 | 181 | 0.0 | 0.0 | 0.00 | 0.00 | 0.00 | 93 | 1014.6 |
| 20260510022338 | 64 | 181 | 0.0 | 0.0 | 0.00 | 0.00 | 0.00 | 93 | 1014.6 |
| 20260510021838 | 65 | 181 | 0.0 | 0.0 | 0.00 | 0.00 | 0.00 | 93 | 1014.6 |
| 20260510021338 | 64 | 181 | 0.0 | 0.0 | 0.00 | 0.00 | 0.00 | 93 | 1014.5 |
| 20260510020838 | 65 | 181 | 0.0 | 0.0 | 0.00 | 0.00 | 0.00 | 93 | 1014.4 |
| 20260510020338 | 65 | 181 | 0.0 | 0.0 | 0.00 | 0.00 | 0.00 | 92 | 1014.3 |
| 20260510015838 | 65 | 181 | 0.0 | 0.0 | 0.00 | 0.00 | 0.00 | 92 | 1014.2 |
| 20260510015338 | 65 | 181 | 0.0 | 0.0 | 0.00 | 0.00 | 0.00 | 93 | 1014.2 |
| 20260510014837 | 65 | 181 | 0.0 | 0.0 | 0.00 | 0.00 | 0.00 | 92 | 1014.1 |
| 20260510014337 | 65 | 181 | 0.0 | 0.0 | 0.00 | 0.00 | 0.00 | 92 | 1014.1 |
| 20260510013837 | 66 | 181 | 0.0 | 0.0 | 0.00 | 0.00 | 0.00 | 92 | 1014.0 |
| 20260510013337 | 66 | 181 | 0.0 | 3.0 | 0.00 | 0.00 | 0.00 | 92 | 1013.8 |
| 20260510012337 | 66 | 181 | 3.0 | 3.0 | 0.00 | 0.00 | 0.00 | 92 | 1013.8 |
| 20260510011837 | 66 | 181 | 1.0 | 3.0 | 0.00 | 0.00 | 0.00 | 92 | 1013.7 |
| 20260510011336 | 66 | 181 | 2.0 | 3.0 | 0.00 | 0.00 | 0.00 | 92 | 1013.6 |
| 20260510010837 | 66 | 173 | 0.0 | 0.0 | 0.00 | 0.00 | 0.00 | 91 | 1013.4 |
| 20260510010337 | 66 | 173 | 0.0 | 0.0 | 0.00 | 0.00 | 0.00 | 91 | 1013.3 |
| 20260510005836 | 66 | 173 | 0.0 | 0.0 | 0.00 | 0.00 | 0.00 | 91 | 1013.3 |
| 20260510004836 | 66 | 173 | 0.0 | 3.0 | 0.00 | 0.00 | 0.00 | 91 | 1013.3 |
| 20260510004336 | 67 | 173 | 0.0 | 3.0 | 0.00 | 0.00 | 0.00 | 91 | 1013.3 |
| 20260510003836 | 67 | 173 | 1.0 | 3.0 | 0.00 | 0.00 | 0.00 | 91 | 1013.2 |
| 20260510003336 | 67 | 173 | 0.0 | 2.0 | 0.00 | 0.00 | 0.00 | 91 | 1013.2 |
| 20260510002836 | 67 | 173 | 0.0 | 2.0 | 0.00 | 0.00 | 0.00 | 91 | 1013.2 |
| 20260510002336 | 67 | 173 | 1.0 | 1.0 | 0.00 | 0.00 | 0.00 | 90 | 1013.2 |
| 20260510001835 | 67 | 173 | 0.0 | 1.0 | 0.00 | 0.00 | 0.00 | 90 | 1013.2 |
| 20260510000835 | 68 | 173 | 0.0 | 2.0 | 0.00 | 0.00 | 0.00 | 89 | 1013.1 |
| 20260510000335 | 68 | 173 | 1.0 | 2.0 | 0.00 | 0.00 | 0.00 | 89 | 1012.9 |
| 20260509235835 | 68 | 173 | 0.0 | 0.0 | 0.00 | 0.00 | 0.00 | 89 | 1012.9 |
| 20260509235335 | 68 | 173 | 0.0 | 0.0 | 0.00 | 0.00 | 0.00 | 89 | 1012.9 |
| 20260509233835 | 69 | 173 | 0.0 | 2.0 | 0.00 | 0.00 | 0.00 | 87 | 1012.7 |
| 20260509233335 | 69 | 173 | 0.0 | 2.0 | 0.00 | 0.00 | 0.00 | 87 | 1012.7 |
| 20260509232835 | 69 | 173 | 0.0 | 5.0 | 0.00 | 0.00 | 0.00 | 87 | 1012.7 |
| 20260509232334 | 69 | 173 | 1.0 | 5.0 | 0.00 | 0.00 | 0.00 | 86 | 1012.7 |
| 20260509231834 | 69 | 173 | 2.0 | 3.0 | 0.00 | 0.00 | 0.00 | 86 | 1012.5 |
| 20260509230904 | 70 | 172 | 2.0 | 3.0 | 0.00 | 0.00 | 0.00 | 85 | 1012.4 |